Home > Weather > Salalah > Past weeks

Flag for Oman Weather for the Past 2 Weeks in Salalah, Oman

Now
90 °F

Sunny.


Feels Like: 103 °F
Forecast: 81 / 91 °F
Wind: 16 mph from South

Location: Salalah Airport

Current Time: May 5, 2016 at 2:37:29 PM

Latest Report: May 5, 2016 at 1:50 PM


Visibility: 10 mi

Pressure: 29.77 "Hg

Humidity: 67%

Dew Point: 77 °F

Location of SalalahLocation

Historic Weather in Salalah — Graph

°F

Salalah Temperature Yesterday

Maximum temperature yesterday: 90 °F (at 10:50 AM)
Minimum temperature yesterday: 82 °F (at 12:50 AM)
Average temperature yesterday: 85 °F

High & Low Weather Summary for the Past Weeks

 TemperatureHumidityPressure
High93 °F (Apr 21, 9:50 AM)89% (Apr 24, 2:50 AM)29.95 "Hg (Apr 24, 2:50 AM)
Low79 °F (Apr 22, 4:50 AM)13% (Apr 21, 9:50 AM)29.74 "Hg (Apr 24, 2:50 PM)
Average85 °F74%29.84 "Hg
* Reported Apr 21 9:50 AM — May 5 12:50 PM, Salalah, Weather by CustomWeather, © 2016

Note: Actual official high and low records may vary slightly from our data, if they occured in-between our weather recording intervals... More about our weather records

Advertising

Salalah Weather History for the Previous 24 Hours

Scroll right to see more
 ConditionsComfort  
Time TempWeatherWind HumidityBarometerVisibility
12:50 PM
Thu, May 5
90 °FPassing clouds.16 mph63%29.80 "HgN/A
11:50 AM91 °FPassing clouds.15 mph63%29.83 "HgN/A
10:50 AM90 °FPassing clouds.14 mph63%29.86 "HgN/A
9:50 AM88 °FPassing clouds.7 mph66%29.86 "HgN/A
8:50 AM86 °FScattered clouds.6 mph70%29.86 "HgN/A
7:50 AM84 °FScattered clouds.2 mph79%29.83 "HgN/A
6:50 AM82 °FScattered clouds.3 mph84%29.83 "HgN/A
5:50 AM82 °FPassing clouds.2 mph84%29.80 "HgN/A
4:50 AM82 °FPassing clouds.5 mph79%29.80 "HgN/A
3:50 AM81 °FPassing clouds.2 mph89%29.77 "HgN/A
2:50 AM82 °FPassing clouds.No wind84%29.77 "HgN/A
1:50 AM82 °FPassing clouds.3 mph84%29.77 "HgN/A
12:50 AM82 °FPassing clouds.5 mph84%29.80 "HgN/A
11:50 PM
Wed, May 4
82 °FPassing clouds.1 mph84%29.80 "HgN/A
10:50 PM84 °FPassing clouds.2 mph79%29.83 "HgN/A
9:50 PM84 °FPassing clouds.5 mph79%29.83 "HgN/A
8:50 PM84 °FPassing clouds.6 mph79%29.80 "HgN/A
7:50 PM84 °FPassing clouds.7 mph79%29.80 "HgN/A
6:50 PM86 °FPassing clouds.9 mph75%29.77 "HgN/A
5:50 PM86 °FPassing clouds.13 mph75%29.77 "HgN/A
4:50 PM88 °FPassing clouds.16 mph70%29.77 "HgN/A
3:50 PM88 °FPassing clouds.16 mph70%29.77 "HgN/A
2:50 PM90 °FHot.18 mph67%29.77 "HgN/A
Weather by CustomWeather, © 2016

See weather overviewHow to use our weather pages